Regional Weather Roundup
Issued by NWS Green Bay, WI

Home | Current Version | Previous Version | Graphics & Text | Print | Product List | Glossary Off
Versions: 1 2 3 4 5 6 7 8 9 10 11 12 13 14 15 16 17 18 19 20 21 22 23 24 25 26 27 28 29 30 31 32 33 34 35 36 37 38 39 40 41 42 43 44 45 46 47 48 49 50

710
ASUS43 KGRB 202311
RWRGRB

NORTH-CENTRAL AND NORTHEAST WISCONSIN REGIONAL WEATHER ROUNDUP
NATIONAL WEATHER SERVICE GREEN BAY WI
600 PM CDT THU JUL 20 2017

WIZ005-009-010>012-018-019-210000-
NORTH CENTRAL WISCONSIN

CITY           SKY/WX    TMP DP  RH WIND       PRES   REMARKS
IRONWOOD       SUNNY     80  61  52 W6        29.98F
MANITOWISH WTR SUNNY     81  58  45 NW8       30.00R
ARBOR VITAE    SUNNY     82  55  39 W8        29.99R
EAGLE RIVER    SUNNY     82  53  37 NW9       29.99R
LAND O LAKES   SUNNY     81  50  33 NW7       30.00S
RHINELANDER    SUNNY     84  57  39 NW5       29.99S
PHILLIPS       SUNNY     82  62  50 NW5       29.99S
ANTIGO         SUNNY     82  62  50 NW7       29.99S
TOMAHAWK         N/A     82  57  42 W7        29.99S
MERRILL        SUNNY     84  64  50 NW8       29.98F
$$

WIZ013-073-210000-
NORTHEAST WISCONSIN

CITY           SKY/WX    TMP DP  RH WIND       PRES   REMARKS
IRON MOUNTAIN  SUNNY     86  59  39 NW12      29.92S
MARINETTE      SUNNY     86  66  51 NW3       29.91F
OCONTO         SUNNY     86  63  45 NW5       29.92S
$$

WIZ017-030-035>037-045-210000-
CENTRAL WISCONSIN

CITY           SKY/WX    TMP DP  RH WIND       PRES   REMARKS
MEDFORD        SUNNY     82  63  53 W10       30.01R
WAUSAU         SUNNY     85  61  44 W12       29.96S
MOSINEE        MOSUNNY   82  63  51 W10       29.99F
MARSHFIELD     SUNNY     82  63  52 W10       29.99S
WISC RAPIDS    MOSUNNY   86  65  49 N9        29.99S
STEVENS POINT  SUNNY     83  63  51 NW8       29.98S
WAUPACA        MOSUNNY   87  63  44 NW7       29.96S
SHAWANO        SUNNY     89  59  36 NW6       29.94S
CLINTONVILLE   SUNNY     86  59  39 NW9       29.94S
WAUTOMA        CLOUDY    82  72  71 W6        29.97S
$$

WIZ038-039-048-051-210000-
FOX VALLEY

CITY           SKY/WX    TMP DP  RH WIND       PRES   REMARKS
NWS GREEN BAY  SUNNY     86  70  58 W7        29.93S HX  90
APPLETON       MOSUNNY   84  61  45 NW10      29.94S
OSHKOSH        MOSUNNY   83  69  62 W5        29.95S
FOND DU LAC    CLOUDY    84  67  56 NW10      29.95S
$$

WIZ022-050-052-210000-
EAST CENTRAL WISCONSIN

CITY           SKY/WX    TMP DP  RH WIND       PRES   REMARKS
EPHRAIM        FAIR      82  66  58 CALM      29.91S
WASHINGTON ISL FAIR      80  67  66 S7        29.90S
STURGEON BAY     N/A     84  66  54 CALM      29.93S
MANITOWOC      CLOUDY    85  66  53 NW7       29.94S
SHEBOYGAN      MOSUNNY   84  71  65 W7        29.94S
$$

LMZ563-521-522-541>543-210000-
LAKESHORE

STATION/POSITION TIME  TEMP    WIND        PRES    VSBY  WAVE
                       AIR SEA DIR/SP/G                  HT/PER
                 (UTC) (F)     (DEG/KT/KT) (MB)    (MI)  (FT/S)
SHEBOYGAN LKSHOR 2300   69     170/ 16/ 17 1013.3S
KEWAUNEE LKSHORE 2242   71     180/  7/  7 1013.2S
NORTHPORT PIER   2240   79     160/  5/  7 1012.2S
N MID LAKE BUOY  2150   69 66  190/ 10/ 10 1013.2          2/ 6
S GREEN BAY BUOY 2300   78 74  170/  4/  6 1013.1
SISTER BAY LKSHO 2302   85     260/  6/  6   N/A
CHAMBERS ISLAND  2240   83     170/  4/  7 1012.2F
MENOMINEE LKSHOR 2242   86     280/  6/  8 1012.5F
$$




USA.gov is the U.S. government's official web portal to all federal, state and local government web resources and services.